www.pogodaiklimat.ru

Погода и климат >> Архив погоды >> Португалия >> Эвора


ПОГОДА в Эворе

  • Прогноз погоды в Эворе
  • Монитор погоды в Эворе

АРХИВ ПОГОДЫ в Эворе

Время (UTC), дата Ветер
(напр.,м/с)
 
Видим.   Явления Облачность Т
(С)
Тd
(С)
f
(%)
Тe
(С)
Тes
(С)
Комфортность P
(гПа)
Po
(гПа)
Тmin
(С)
Tmax
(С)
R
(мм)
R24
(мм)
S
(см)
21 16.09 ЮЗ 4
{6}
н/о н/о +19.7 +13.4 67 +21 +21 комфорт 1017.5 988.9
00 17.09 С 1 н/о н/о +17.7 +15.9 89 +19 +19 1017.4 988.6
03 17.09 штиль 0 н/о н/о +15.9 +15.5 97 +16 +16 1016.4 987.4
06 17.09 З 2 н/о н/о +13.9 +13.9 100 +13 +13 1016.3 987.2 +13.9
09 17.09 С 1 15 км 4/0
[Ac cast Ci sp]
+22.9 +14.4 59 +27 +32 душно 1016.0 987.7
12 17.09 С 1
{5}
20 км 8/3 1300 м
[Cb calv Ac cast Ci sp]
+27.2 +12.7 41 +29 +36 жарко 1014.9 987.1
15 17.09 С 2
{7}
н/о н/о +30.0 +11.7 32 +31 +31 жарко 1012.8 985.2
18 17.09 З 5 н/о н/о +27.6 +13.5 42 +29 +29 жарко 1012.4 984.7 +31.2
21 17.09 З 3
{6}
н/о н/о +18.6 +13.8 74 +19 +19 1015.6 986.9
00 18.09 З 2 н/о н/о +15.5 +14.8 96 +15 +15 1015.6 986.6
03 18.09 штиль 0 н/о н/о +13.6 +13.6 100 +13 +13 1015.2 986.1
06 18.09 З 1 н/о н/о +12.4 +12.4 100 +12 +12 1016.1 986.8 +12.4
09 18.09 С 1 8000 м дымка 1/0
[Ci sp]
+20.6 +14.1 66 +24 +30 комфорт 1016.5 988.0
12 18.09 ЮЗ 3
{7}
15 км 4/1 840 м
[Cu hum Ac cast Ci sp]
+26.3 +13.3 45 +28 +37 жарко 1015.9 988.0
15 18.09 З 3-6
{7}
н/о н/о +28.4 +10.9 34 +29 +29 жарко 1014.6 986.9
18 18.09 З 7 н/о н/о +22.3 +12.4 53 +25 +25 комфорт 1015.5 987.1 +29.1
21 18.09 З 3
{5}
н/о н/о +18.2 +14.0 76 +19 +19 1017.2 988.5
00 19.09 З 2 н/о н/о +15.4 +14.5 94 +15 +15 1017.4 988.4
03 19.09 З 3 н/о н/о +13.4 +13.4 100 +12 +12 1016.8 987.6
06 19.09 штиль 0 н/о н/о +12.4 +12.4 100 +12 +12 1017.2 987.9 +11.3
09 19.09 З 2 4000 м в посл. час туман 6/4 240 м
[St Ci sp]
+17.8 +15.4 86 +18 +21 1017.7 988.9
12 19.09 С 2
{5}
н/о н/о +24.3 +13.6 51 +27 +27 жарко 1016.3 988.1
15 19.09 ЮЗ 3-5
{6}
н/о н/о +27.2 +12.5 40 +29 +29 жарко 1014.2 986.3
18 19.09 З 6
{9}
н/о н/о +22.3 +15.3 65 +26 +26 жарко 1014.2 986.0 +28.2
21 19.09 СЗ 4
{7}
н/о н/о +19.8 +14.2 70 +22 +22 комфорт 1015.9 987.3
00 20.09 З 1 н/о н/о +15.9 +15.1 95 +17 +17 1015.7 986.8
03 20.09 штиль 0 н/о н/о +14.6 +14.6 100 +14 +14 1015.0 985.9
06 20.09 З 1 н/о н/о +13.8 +13.8 100 +14 +14 1014.8 985.7 +13.6
09 20.09 С 1 10 км 6/0
[Ac und Ci sp]
+19.3 +14.6 74 +22 +25 комфорт 1015.2 986.6
12 20.09 С 2
{6}
12 км осадки на расстоянии 10/4 840 м
[Sc Ac As]
+21.6 +13.9 62 +24 +27 комфорт 1013.9 985.6
15 20.09 С 2-6
{6}
н/о н/о +23.5 +14.3 56 +26 +26 жарко 1012.8 984.6
18 20.09 ЮЗ 4
{7}
н/о н/о +22.9 +12.8 53 +26 +26 жарко 1012.5 984.3 +25.7 0.4
21 20.09 ЮЗ 3
{6}
н/о н/о +19.6 +14.8 74 +22 +22 комфорт 1013.5 985.0
00 21.09 Ю 3-5
{5}
н/о н/о +18.6 +15.7 83 +20 +20 1013.1 984.5
03 21.09 Ю 4 н/о н/о +18.0 +18.0 100 +18 +18 1011.9 983.3 1
06 21.09 Ю 3
{5}
н/о н/о +17.7 +17.7 100 +18 +18 1011.7 983.1 +17.3 6
09 21.09 Ю 4
{6}
н/о н/о +18.7 +18.7 100 +20 +20 1012.6 984.0
12 21.09 Ю 6 н/о н/о +21.3 +21.3 100 +27 +27 душно 1012.2 983.9 0.7
15 21.09 ЮЗ 7
{11}
н/о н/о +24.4 +17.5 65 +28 +28 душно 1010.1 982.1
18 21.09 ЮЗ 5
{10}
н/о н/о +18.0 +18.0 100 +18 +18 1011.7 983.1 +26.0 7
21 21.09 Ю 6 н/о н/о +18.4 +18.4 100 +19 +19 1012.4 983.8 8
00 22.09 СЗ 5 н/о н/о +15.8 +15.8 100 +15 +15 1014.3 985.4
03 22.09 ЮЗ 1 н/о н/о +13.9 +13.9 100 +14 +14 1014.7 985.6
06 22.09 З 1 н/о н/о +13.9 +13.9 100 +14 +14 1016.0 986.8 +13.0 3
09 22.09 З 3 н/о н/о +16.2 +16.2 100 +16 +16 1017.7 988.8
12 22.09 С 1
{6}
н/о н/о +21.2 +14.4 65 +24 +24 комфорт 1017.4 988.9 0.1
15 22.09 З 4
{8}
н/о н/о +22.9 +10.8 46 +25 +25 комфорт 1016.8 988.5
18 22.09 З 4-6
{6}
н/о н/о +20.6 +11.7 57 +23 +23 комфорт 1017.8 989.3 +24.1 0.1
21 22.09 СЗ 3
{6}
н/о н/о +17.0 +11.8 71 +17 +17 1020.0 991.1
00 23.09 СЗ 2 н/о н/о +14.2 +13.2 94 +14 +14 1020.5 991.2
03 23.09 СЗ 1 н/о н/о +12.6 +12.6 100 +12 +12 1020.5 991.1
06 23.09 С 2 н/о н/о +12.2 +12.2 100 +11 +11 1021.8 992.3 +11.5
09 23.09 С 1 н/о н/о +17.2 +15.7 91 +18 +18 1022.2 993.2
12 23.09 С 2
{5}
н/о н/о +23.2 +11.2 47 +25 +25 комфорт 1021.1 992.7
15 23.09
{5}
н/о н/о +25.6 +10.1 38 1019.5 991.4

 

Местоположение метеостанции Эвора (Португалия): широта 38.53 долгота -7.90 высота над уровнем моря 246 м.

В архиве по умолчанию представлена погода в Эворе за последнюю неделю. Архивные данные за месяц целиком и за предыдущие месяцы, начиная с января 2011 года, Вы можете получить, выбрав интересующий диапазон дат из раскрывающегося списка и нажав кнопку "Ввод!".


*Определитесь, кто Вы:
робот инопланетянин человек

Внимание! Время в таблицах - всемирное. Для получения местного времени необходимо прибавить поправку, которая равна 0 ч.

Смотрите также архив погоды в соседних городах и на ближайших метеорологических станциях:

Погода в Бежа аэропорту (Португалия) (51 км)
Погода в Беже (Португалия) (57 км)
Погода в Порталегре (Португалия) (93 км)
Погода в Монтижу (Португалия) (100 км)
Погода в Бадахосе (Испания) (101 км)
Погода в Херес-де-лос-Кабалье (Испания) (103 км)
Погода в Синише (Португалия) (107 км)
Погода в Лиссабон аэропорту (Португалия) (110 км)
Погода в Лиссабоне (Португалия) (111 км)
Погода в Валенсия-де-Алькантаре (Испания) (114 км)

Пояснения к столбцам:

Ветер - указаны скорость ветра в м/с - средняя за 10 мин, порывы в срок и между сроками (в фигурных скобках) и направление, откуда дует ветер: С - северный, СВ - северо-восточный, В - восточный, ЮВ - юго-восточный, Ю - южный, ЮЗ - юго-западный, З - западный, СЗ - северо-западный.
Видимость - горизонтальная дальность видимости в метрах или километрах. При видимости от 1 до 10 км при отсутствии осадков обычно наблюдается дымка, при ухудшении видимости до 1 км и менее - туман. В сухую погоду видимость может ухудшаться дымом, пылью или мглою.
Явления - указаны атмосферные явления, наблюдавшиеся в срок или в последний час перед сроком; фигурными скобками обозначены явления, наблюдавшиеся между сроками (за 1-3 часа до срока); квадратными скобками обозначены град или гололедные отложения с указанием их диаметра в мм.
Облачность - указаны через наклонную черту общая и нижняя облачность в баллах и высота нижней границы облаков в метрах; квадратными скобками обозначены формы облаков: Ci - перистые, Cs - перисто-слоистые, Cc - перисто-кучевые, Ac - высококучевые, As - высокослоистые, Sc - слоисто-кучевые, Ns - слоисто-дождевые, Cu - кучевые, Cb - кучево-дождевые. Подробнее классификацию облаков см. в Атласе облаков (PDF).
T - Температура воздуха - температура, измеренная на высоте 2 м над землей.
Td - Температура точки росы - температура, при понижении до которой содержащийся в воздухе водяной пар достигнет насыщения.
f - Относительная влажность воздуха - влажноcть воздуха, измеренная на высоте 2 м над землей.
Te - Эффективная температура - температура, которую ощущает одетый по сезону человек в тени. Характеристика душности погоды. При расчете учитывается влияние влажности воздуха и скорости ветра на теплоощущения человека.
Tes - Эффективная температура на солнце - температура, которую ощущает человек, с поправкой на солнечный нагрев. Характеристика знойности погоды. Зависит от высоты солнца над горизонтом, облачности и скорости ветра. Ночью, в пасмурную погоду, а также при ветре 12 м/с и более поправка равна нулю.
P - Атмосферное давление - приведенное к уровню моря атмосферное давление.
Po - Атмосферное давление - измеренное на уровне метеостанции атмосферное давление.
Tmin - Минимальная температура - минимум температуры воздуха на высоте 2 м над землей.
Tmax - Максимальная температура - максимум температуры воздуха на высоте 2 м над землей.
R - Количество осадков - Количество выпавших осадков за период времени, мм. При наведении курсора мыши на число - период времени, за который выпало указанное количество осадков.
R24 - Количество осадков - Количество выпавших осадков за 24 часа, мм.
S - Снежный покров - Высота снежного покрова, см. При наведении курсора мыши на число - состояние снежного покрова и степень покрытия местности в баллах.